Regional Weather Roundup
Issued by NWS

Home | Current Version | Previous Version | Graphics & Text | Print | Product List | Glossary On
Versions: 1 2 3 4 5 6 7 8 9 10 11 12 13 14 15 16 17 18 19 20 21 22 23 24 25 26 27 28 29 30 31 32 33 34 35 36 37 38 39 40 41 42 43 44 45 46 47 48 49 50
000
ASUS43 KDTX 181901
RWRMI
MICHIGAN HOURLY REGIONAL WEATHER ROUNDUP
NATIONAL WEATHER SERVICE DETROIT/PONTIAC MI
200 PM EST WED JAN 18 2017

NOTE: "FAIR" INDICATES FEW OR NO CLOUDS BELOW 12,000 FEET WITH NO
SIGNIFICANT WEATHER AND/OR OBSTRUCTION TO VISIBILITY.

MIZ047>049-052>055-059>063-066>070-074>076-081>083-182000-
SOUTHEAST LOWER MICHIGAN

CITY           SKY/WX    TMP DP  RH WIND       PRES   REMARKS
ADRIAN         CLOUDY    39  36  89 W9        30.06F WCI  33
ALMA           CLOUDY    38  36  92 W8        30.01F WCI  32
ANN ARBOR      CLOUDY    39  37  92 SW10      30.04F WCI  32
BAD AXE        FOG       35  35 100 W13G18    29.99S VSB 1/2 WCI  26
CARO           CLOUDY    37  36  96 W7        30.01R WCI  31
DETROIT        CLOUDY    41  37  86 W13       30.05F
FLINT          CLOUDY    38  36  92 W8        30.03S WCI  32
GROSSE ILE     CLOUDY    39  36  86 W8        30.04F WCI  34
HILLSDALE      CLOUDY    36  34  93 SW9       30.04F FOG     WCI  29
HOWELL         CLOUDY    38  36  92 SW10      30.02F FOG     WCI  31

CITY           SKY/WX    TMP DP  RH WIND       PRES   REMARKS
JACKSON        CLOUDY    38  35  89 W10       30.03F WCI  31
LAMBERTVILLE   CLOUDY    40  36  84 W6        30.07F
LANSING        CLOUDY    38  34  85 SW10      30.03F WCI  31
LAPEER         CLOUDY    38  36  95 W12       30.02R WCI  30
MASON          CLOUDY    37  36  94 W5        30.03F WCI  34
MONROE         CLOUDY    40  38  93 W7        30.05F WCI  35
MT. CLEMENS    CLOUDY    40  37  91 W10       30.00F WCI  33
PONTIAC        CLOUDY    37  34  89 SW9       30.00F WCI  30
PORT HOPE        N/A     36  34  92 W10G22    29.97R WCI  28
PORT HURON     CLOUDY    39  36  87 W7        30.01F WCI  34
TRI CITIES     CLOUDY    38  36  92 W15       30.01F WCI  29
MIDLAND        NOT AVBL
TROY           CLOUDY    40  35  84 W9        30.04F WCI  34
SAGINAW HB     CLOUDY    37  34  87 SW10      30.01S WCI  30
$$
MIZ043>046-050>051-056>058-064>065-071>073-077>080-182000-
SOUTHWEST LOWER MICHIGAN

CITY           SKY/WX    TMP DP  RH WIND       PRES   REMARKS
BATTLE CREEK   CLOUDY    37  36  96 SW16      30.05F WCI  28
BENTON HARBOR  CLOUDY    36  33  89 SW12      30.07F FOG     WCI  28
BIG RAPIDS     CLOUDY    37  35  93 W9        29.98F WCI  30
COLDWATER      CLOUDY    36  36 100 SW9       30.06F FOG     WCI  29
FREMONT        CLOUDY    36  36 100 SW12      30.00F WCI  27
HOLLAND        CLOUDY    37  35  92 SW12      30.05S WCI  29
GRAND RAPIDS   CLOUDY    37  34  89 W12       30.03F WCI  29
IONIA          CLOUDY    37  36  94 SW9       30.02S WCI  31
KALAMAZOO      CLOUDY    37  34  89 SW12      30.06F FOG     WCI  29
LUDINGTON      CLOUDY    35  35 100 SW8       29.99F FOG     WCI  29
MARSHALL       CLOUDY    38  36  92 SW9       30.04F WCI  31
MOUNT PLEASANT CLOUDY    38  36  91 W12       30.00F WCI  31
MUSKEGON       CLOUDY    38  35  89 SW13      30.03F WCI  30
SOUTH HAVEN    CLOUDY    36  35  96 SW13G20   30.06F FOG     WCI  27
$$
MIZ016>042-182000-
NORTHERN LOWER MICHIGAN

CITY           SKY/WX    TMP DP  RH WIND       PRES   REMARKS
ALPENA         PTSUNNY   39  33  79 SW13G18   29.94F WCI  31
BEAVER ISLAND  CLOUDY    35  34  96 SW17G24   29.88F WCI  24
BELLAIRE       CLOUDY    38  35  89 SW7       29.94F WCI  32
CADILLAC       CLOUDY    35  33  94 SW12      29.95F WCI  26
CHARLEVOIX     CLOUDY    38  35  91 S12G18    29.94F WCI  30
FRANKFORT      CLOUDY    35  35 100 SW12G18   29.96F FOG     WCI  27
GAYLORD        PTSUNNY   37  32  82 SW16      29.90F WCI  28
GRAYLING       PTSUNNY   39  35  84 SW8G17    29.94F WCI  34
HARBOR SPRINGS CLOUDY    36  34  92 SW10      29.90F WCI  28
HOUGHTON LAKE  CLOUDY    36  33  89 SW12      29.96F WCI  28
MANISTEE       CLOUDY    35  35 100 SW9       29.97F FOG     WCI  28
OSCODA         CLOUDY    38  35  88 W10       29.96F WCI  31
PELLSTON       CLOUDY    37  32  82 S7        29.90F WCI  32
ROGERS CITY    CLOUDY    39  34  83 SW6       29.91F WCI  34
TRAVERSE CITY  CLOUDY    38  34  85 VRB7G18   29.94F WCI  33
$$
MIZ007>008-015-182000-
EASTERN UPPER MICHIGAN

CITY           SKY/WX    TMP DP  RH WIND       PRES   REMARKS
MACKINAC ISLAN CLOUDY    35  35 100 SW8G22    29.88S WCI  28
NEWBERRY       CLOUDY    32  32  99 SW18      29.81F WCI  21
S. S. MARIE    CLOUDY    36  33  89 SW9G20    29.83F WCI  29
MUNISING         N/A     41  29  62 MISG      29.79F
$$
MIZ004>006-011>014-085-182000-
CENTRAL UPPER MICHIGAN

CITY           SKY/WX    TMP DP  RH WIND       PRES   REMARKS
MANISTIQUE     CLOUDY    33  32  98 SW8G20    29.84F WCI  25
ESCANABA       SUNNY     37  32  82 S12       29.85F WCI  29
SAWYER-GWINN   SUNNY     37  28  70 SW10G20   29.77F WCI  30
$$
MIZ001>003-009>011-084-182000-
WESTERN UPPER MICHIGAN

CITY           SKY/WX    TMP DP  RH WIND       PRES   REMARKS
IRON MOUNTAIN  SUNNY     42  27  55 SW8       29.80F
HOUGHTON       SUNNY     38  27  64 W20       29.73F WCI  28
COPPER HARBOR    N/A     40  29  64 N12G18    29.74S WCI  33
IRONWOOD       SUNNY     44  25  47 SW13      29.77F
$$

ABBREVIATIONS USED IN REMARKS
   TC - TEMPERATURE IN CELSIUS
  WCI - WIND CHILL INDEX
   HX - HEAT INDEX
  VSB - VISIBILITY





USA.gov is the U.S. government's official web portal to all federal, state and local government web resources and services.